Tracking 33208 objects as of 14-Feb-2026
HD Live streaming from Space Station
objects crossing your sky now

STARLINK-5620

Track STARLINK-5620 now!
10-day predictions
STARLINK-5620 is classified as:


NORAD ID: 55414
Int'l Code: 2023-014Z
Perigee: 576.6 km
Apogee: 581.7 km
Inclination: 70.0 °
Period: 96.1 minutes
Semi major axis: 6950 km
RCS: Unknown
Launch date: January 31, 2023
Source: United States (US)
Launch site: AIR FORCE WESTERN TEST RANGE (AFWTR)
Your satellite tracking list
Your tracking list is empty




NASA's NSSDC Master Catalog

Two Line Element Set (TLE):
1 55414U 23014Z   26045.51868538  .00001351  00000-0  12096-3 0  9991
2 55414  70.0016 142.7914 0003674 263.5689  96.5051 14.98333839168093
Source of the keplerian elements: AFSPC